Starlink 31909

operational
NORAD ID: 59663 Int'l Des: 2024-084 Owner: SPXS Country: US Constellation: starlink
LEOCIRCULAR

About Starlink 31909

Description loading...

Live Position

Loading 3D Globe...

Upcoming Passes

Altitude History

Altitude vs Time

uPlot chart will show altitude changes over time

Two-Line Element Set

1 59663U 24084K 25351.14437174 -.00000644 00000-0 -13894-4 0 9999
2 59663 42.9982 147.6045 0001306 271.2217 88.8485 15.27583294 91753
Epoch: Dec 17, 2025 • Age: 12 hours

Current Status

Altitude 483.1 km
Velocity 7.63 km/s
Sub-Earth Point -2.10°S, 11.86°E
Launch Date May 6, 2024
Age 1.6 years
Type internet

Technical Details

Classification Payload
Mass 730.00 kg
Dry Mass 700.00 kg
Total Mass 730.00 kg
Length 0.30 m
Diameter 4.10 m
Span 29.00 m
Shape Box + pan
Manufacturer SPXS
Bus Type Starlink V2M
Phase Status In Orbit
Owner/State SPXS/US

Large Constellations

Loading constellations...